STARLINK-11150 [DTC] (60406 NORAD) Tracking and Keplerian Element Data

This shows tracking and keplerian element data for the satellite.

Feedback or suggestion? Click here.




ElementValue
Catalog60406
NameSTARLINK-11150 [DTC]
Epoch Orbit1117
Epoch Day286.72663054
Epoch Year2024
RAAN95.1703
Inclination53.1568
Eccentricity6.74E-05
Argument of Perigee134.9412
Mean Anonmoly225.1661
Mean Motion15.69767055
Decay Rate0.00013301
L11 60406U 24141J 24286.72663054 .00013301 00000+0 11420-3 0 9991
L22 60406 53.1568 95.1703 0000674 134.9412 225.1661 15.69767055 11176



Live tracking and technical data element details for STARLINK-11150 [DTC] (NORAD 60406). STARLINK-11150 [DTC] can be tracked NOW for your location showing map with azimuth and elevation plus other details from your city location.







IsCatalogInMostPopularTable: catalog: 60406, numindb: 7
Update: records affected: 1



GetName: 60406 STARLINK-11150 [DTC]

Hit Count: updated at: Fri, 06 Dec 2024 11:45:39 GMT